Location: Chena
(64.8152°N, 147.9227°W)
Time: 01:06:28
(UTC+00:00)

Vanguard 2 - Pass Details

Date: 03 March 2021
Orbit: 552 x 2938 km, 32.9° (Epoch: 10 April)

Event Time Altitude Azimuth Distance (km) Brightness Sun altitude
Exits shadow 14:11:17 - 205° (SSW) 5,888 11.6 -17.6°
Reaches altitude 10° 14:16:04 10° 191° (S) 5,443 11.5 -17.2°
Maximum altitude 14:23:56 15° 162° (SSE) 5,247 11.7 -16.4°
Drops below altitude 10° 14:32:11 10° 134° (SE) 5,763 12.3 -15.5°
Sets 14:39:24 0° 116° (ESE) 6,650 13.1 -14.8°
